Stündliche Wetter Homa Bay

Heute, 25 Juni, Freitag

Zeit Temperatur Niederschläge Wind Luftdruck Luftfeuchtigkeit
00:00 +19°C° 0 mm 2 m/S 661 mmHg 81%
01:00 +19°C° 0 mm 2 m/S 660 mmHg 80%
02:00 +19°C° 0 mm 2 m/S 660 mmHg 80%
03:00 +18°C° 0 mm 2 m/S 660 mmHg 79%
04:00 +19°C° 0 mm 1 m/S 660 mmHg 78%
05:00 +19°C° 0 mm 1 m/S 660 mmHg 78%
06:00 +20°C° 0 mm 1 m/S 661 mmHg 72%
07:00 +22°C° 0 mm 1 m/S 661 mmHg 66%
08:00 +24°C° 0 mm 1 m/S 662 mmHg 61%
09:00 +25°C° 0 mm 1 m/S 662 mmHg 56%
10:00 +27°C° 0 mm 1 m/S 662 mmHg 51%
11:00 +29°C° 0 mm 2 m/S 662 mmHg 46%
12:00 +29°C° 0 mm 2 m/S 662 mmHg 46%
13:00 +29°C° 0 mm 2 m/S 661 mmHg 47%
14:00 +29°C° 0 mm 3 m/S 660 mmHg 47%
15:00 +27°C° 0 mm 2 m/S 660 mmHg 54%
16:00 +26°C° 0 mm 2 m/S 660 mmHg 60%
17:00 +25°C° 0 mm 2 m/S 660 mmHg 67%
18:00 +24°C° 0 mm 2 m/S 660 mmHg 70%
19:00 +21°C° 0 mm 2 m/S 661 mmHg 74%
20:00 +21°C° 0 mm 1 m/S 661 mmHg 77%
21:00 +21°C° 0 mm 1 m/S 661 mmHg 77%
22:00 +21°C° 0 mm 1 m/S 660 mmHg 76%
23:00 +21°C° 0 mm 1 m/S 660 mmHg 76%

Morgen, 26 Juni, Samstag

Zeit Temperatur Niederschläge Wind Luftdruck Luftfeuchtigkeit
00:00 +20°C° 0 mm 1 m/S 660 mmHg 77%
01:00 +20°C° 0 mm 1 m/S 659 mmHg 78%
02:00 +19°C° 0 mm 1 m/S 659 mmHg 79%
03:00 +19°C° 0 mm 1 m/S 659 mmHg 80%
04:00 +19°C° 0 mm 1 m/S 659 mmHg 81%
05:00 +19°C° 0 mm 1 m/S 659 mmHg 81%
06:00 +21°C° 0 mm 1 m/S 660 mmHg 76%
07:00 +22°C° 0 mm 1 m/S 661 mmHg 70%
08:00 +24°C° 0 mm 1 m/S 661 mmHg 65%
09:00 +26°C° 0 mm 1 m/S 661 mmHg 58%
10:00 +27°C° 0 mm 1 m/S 662 mmHg 51%
11:00 +29°C° 0 mm 2 m/S 662 mmHg 45%
12:00 +29°C° 0 mm 2 m/S 661 mmHg 47%
13:00 +28°C° 0 mm 2 m/S 661 mmHg 49%
14:00 +28°C° 0 mm 3 m/S 660 mmHg 51%
15:00 +27°C° 0 mm 2 m/S 660 mmHg 56%
16:00 +26°C° 0 mm 2 m/S 660 mmHg 60%
17:00 +25°C° 0 mm 1 m/S 660 mmHg 65%
18:00 +24°C° 0 mm 1 m/S 660 mmHg 67%
19:00 +23°C° 0 mm 1 m/S 660 mmHg 69%
20:00 +22°C° 0 mm 1 m/S 660 mmHg 70%
21:00 +21°C° 0 mm 1 m/S 660 mmHg 72%
22:00 +21°C° 0 mm 1 m/S 660 mmHg 74%
23:00 +19°C° 0 mm 2 m/S 660 mmHg 75%

übermorgen, 27 Juni, Sonntag

Zeit Temperatur Niederschläge Wind Luftdruck Luftfeuchtigkeit
00:00 +19°C° 0 mm 2 m/S 660 mmHg 76%
01:00 +19°C° 0 mm 2 m/S 659 mmHg 77%
02:00 +18°C° 0 mm 2 m/S 658 mmHg 78%
03:00 +18°C° 0 mm 2 m/S 659 mmHg 78%
04:00 +18°C° 0 mm 2 m/S 659 mmHg 78%
05:00 +18°C° 0 mm 2 m/S 659 mmHg 78%
06:00 +20°C° 0 mm 2 m/S 660 mmHg 72%
07:00 +23°C° 0 mm 2 m/S 660 mmHg 66%
08:00 +25°C° 0 mm 1 m/S 661 mmHg 60%
09:00 +26°C° 0 mm 1 m/S 661 mmHg 53%
10:00 +28°C° 0 mm 2 m/S 661 mmHg 46%
11:00 +30°C° 0 mm 2 m/S 662 mmHg 40%
12:00 +30°C° 0 mm 2 m/S 661 mmHg 43%
13:00 +29°C° 0 mm 2 m/S 660 mmHg 45%
14:00 +29°C° 0 mm 3 m/S 660 mmHg 48%
15:00 +27°C° 0 mm 2 m/S 660 mmHg 54%
16:00 +26°C° 0 mm 2 m/S 660 mmHg 60%
17:00 +25°C° 0 mm 1 m/S 660 mmHg 67%
18:00 +24°C° 0 mm 1 m/S 660 mmHg 67%
19:00 +24°C° 0 mm 1 m/S 660 mmHg 68%
20:00 +23°C° 0 mm 1 m/S 661 mmHg 68%
21:00 +23°C° 0 mm 1 m/S 661 mmHg 70%
22:00 +22°C° 0 mm 1 m/S 661 mmHg 71%
23:00 +22°C° 0 mm 1 m/S 660 mmHg 72%

28 Juni, Montag

Zeit Temperatur Niederschläge Wind Luftdruck Luftfeuchtigkeit
00:00 +20°C° 0 mm 2 m/S 660 mmHg 72%
01:00 +20°C° 0 mm 2 m/S 659 mmHg 72%
02:00 +19°C° 0 mm 2 m/S 659 mmHg 72%
03:00 +19°C° 0 mm 2 m/S 659 mmHg 72%
04:00 +19°C° 0 mm 2 m/S 659 mmHg 72%
05:00 +18°C° 0 mm 2 m/S 659 mmHg 72%
06:00 +20°C° 0 mm 2 m/S 660 mmHg 67%
07:00 +23°C° 0 mm 2 m/S 661 mmHg 62%
08:00 +25°C° 0 mm 1 m/S 662 mmHg 57%
09:00 +26°C° 0 mm 1 m/S 662 mmHg 52%
10:00 +28°C° 0 mm 1 m/S 662 mmHg 46%
11:00 +30°C° 0 mm 2 m/S 662 mmHg 40%
12:00 +30°C° 0 mm 2 m/S 661 mmHg 42%
13:00 +30°C° 0 mm 3 m/S 661 mmHg 43%
14:00 +30°C° 0 mm 3 m/S 660 mmHg 44%
15:00 +28°C° 0.1 mm 3 m/S 660 mmHg 52%
16:00 +26°C° 0.1 mm 2 m/S 660 mmHg 60%
17:00 +24°C° 0.1 mm 2 m/S 660 mmHg 68%
18:00 +23°C° 0.3 mm 2 m/S 661 mmHg 73%
19:00 +21°C° 0.3 mm 2 m/S 661 mmHg 78%
20:00 +20°C° 0.3 mm 2 m/S 661 mmHg 83%
21:00 +20°C° 0.3 mm 2 m/S 661 mmHg 83%
22:00 +20°C° 0.3 mm 2 m/S 661 mmHg 84%
23:00 +20°C° 0.3 mm 2 m/S 661 mmHg 84%

29 Juni, Dienstag

Zeit Temperatur Niederschläge Wind Luftdruck Luftfeuchtigkeit
00:00 +20°C° 0 mm 3 m/S 661 mmHg 82%
01:00 +20°C° 0 mm 3 m/S 660 mmHg 79%
02:00 +20°C° 0 mm 3 m/S 660 mmHg 76%
03:00 +19°C° 0 mm 3 m/S 660 mmHg 77%
04:00 +19°C° 0 mm 2 m/S 660 mmHg 77%
05:00 +18°C° 0 mm 2 m/S 660 mmHg 78%
06:00 +20°C° 0 mm 2 m/S 660 mmHg 72%
07:00 +21°C° 0 mm 2 m/S 661 mmHg 67%
08:00 +24°C° 0 mm 1 m/S 662 mmHg 61%
09:00 +26°C° 0 mm 1 m/S 662 mmHg 56%
10:00 +28°C° 0 mm 2 m/S 662 mmHg 50%
11:00 +29°C° 0 mm 2 m/S 662 mmHg 44%
12:00 +29°C° 0 mm 3 m/S 662 mmHg 45%
13:00 +29°C° 0 mm 3 m/S 661 mmHg 46%
14:00 +29°C° 0 mm 4 m/S 661 mmHg 46%
15:00 +27°C° 0.3 mm 4 m/S 661 mmHg 55%
16:00 +25°C° 0.3 mm 4 m/S 661 mmHg 63%
17:00 +24°C° 0.3 mm 3 m/S 661 mmHg 72%
18:00 +21°C° 1.1 mm 3 m/S 661 mmHg 79%
19:00 +20°C° 1.1 mm 3 m/S 661 mmHg 86%
20:00 +18°C° 1.1 mm 3 m/S 662 mmHg 93%
21:00 +18°C° 0.1 mm 3 m/S 662 mmHg 91%
22:00 +19°C° 0.1 mm 2 m/S 662 mmHg 89%
23:00 +20°C° 0.1 mm 1 m/S 662 mmHg 87%

30 Juni, Mittwoch

Zeit Temperatur Niederschläge Wind Luftdruck Luftfeuchtigkeit
00:00 +18°C° 0 mm 2 m/S 661 mmHg 86%
01:00 +18°C° 0 mm 2 m/S 661 mmHg 85%
02:00 +18°C° 0 mm 2 m/S 660 mmHg 84%
03:00 +18°C° 0 mm 2 m/S 660 mmHg 83%
04:00 +17°C° 0 mm 2 m/S 660 mmHg 82%
05:00 +17°C° 0 mm 2 m/S 661 mmHg 81%
06:00 +19°C° 0 mm 2 m/S 661 mmHg 75%
07:00 +22°C° 0 mm 1 m/S 662 mmHg 70%
08:00 +23°C° 0 mm 1 m/S 663 mmHg 64%
09:00 +25°C° 0 mm 1 m/S 663 mmHg 58%
10:00 +27°C° 0 mm 1 m/S 663 mmHg 51%
11:00 +29°C° 0 mm 1 m/S 663 mmHg 45%
12:00 +29°C° 0.1 mm 2 m/S 662 mmHg 48%
13:00 +28°C° 0.1 mm 2 m/S 662 mmHg 51%
14:00 +27°C° 0.1 mm 3 m/S 661 mmHg 54%
15:00 +26°C° 0.1 mm 2 m/S 661 mmHg 59%
16:00 +25°C° 0.1 mm 2 m/S 661 mmHg 64%
17:00 +24°C° 0.1 mm 1 m/S 661 mmHg 70%
18:00 +23°C° 0.6 mm 2 m/S 661 mmHg 77%
19:00 +20°C° 0.6 mm 2 m/S 661 mmHg 84%
20:00 +18°C° 0.6 mm 3 m/S 662 mmHg 91%
21:00 +18°C° 0 mm 2 m/S 661 mmHg 89%
22:00 +18°C° 0 mm 2 m/S 661 mmHg 88%
23:00 +18°C° 0 mm 2 m/S 661 mmHg 86%
Mehr zeigen

Wir brauchen deine Erlaubnis

Meteoprog und unser Service Anbieter werden persönliche Daten aufbewahren, so wie Cookies, Geräte Bezeichnung oder ähnliche Technologien von deinem Gerät und Prozess, so wie Persönliche Daten Inhalte und Werbungen, genauso wie social Media und den Verkehr zu analysieren.

  • Aufbewahrung und/oder Zugang zu deiner Geräte Informationen.

    Cookies, Geräte Bezeichnung oder andere Informationen, können aufbewahrt oder Zugang zu deinem Gerät erhalten, für den Grund, der oben angegeben wird.

  • Personalisierte Werbung und Inhalte, Messungen, Einblick in das Publikum und Produkt Entwicklung.

    Werbungen und Inhalte können personalisiert werden, basierend auf ein Profil. Mehr Daten können besser personalisierte Werbungen und Inhalte hinzufügen. Werbung und Inhalte können gezeigt und gemessen werden. Einblicke über das Publikum, welche die Werbung gesehen haben und den Inhalt, können abgeleitet werden. So wie Daten können genutzt werden, um es zu verbessern oder die Benutzer Erfahrung zu verbessern das System und die Software.

Wenn du “Ich stimme zu” klickst, erlaubst du uns, die Cookies zu benutzen die Geräte Bezeichnung, den Web oder ähnliche Technologien zu benutzen. Deine Settings, können in deinem Gerät bei deinem Browser geändert werden.

Für den bestimmten Zweck, berechtigten Interessen beruhen darauf, mehr als auf den Inhalt. Du kannst mehr darüber in unseren Privaten und Cookie Politik lesen.